Location: Seattle
(47.6064°N, 122.3308°W)
Time: 14:51:34
(UTC-08:00)

Tiros 1 despin weight - All Passes

Search period start: 25 November 2020 00:00
Search period end: 05 December 2020 00:00
Orbit: 593 x 642 km, 48.2° (Epoch: 25 November)

Date Brightness Start Highest point End Pass type
(mag) Time Alt. Az. Time Alt. Az. Time Alt. Az.
25 Nov - 13:34:01 10° SW 13:38:22 39° SSE 13:42:43 10° E daylight
25 Nov - 15:15:01 10° WSW 15:19:43 88° SSE 15:24:25 10° E daylight
25 Nov - 16:56:41 10° W 17:01:24 88° N 17:06:04 10° E visible
25 Nov - 18:38:22 10° W 18:42:49 44° SSW 18:47:11 10° SE visible
25 Nov - 20:21:43 10° WSW 20:23:31 12° SW 20:25:19 10° SSW visible
26 Nov - 12:10:30 10° S 12:13:42 18° SE 12:16:55 10° E daylight
26 Nov - 13:50:02 10° SW 13:54:39 58° SSE 13:59:15 10° ENE daylight
26 Nov - 15:31:28 10° W 15:36:11 83° N 15:40:53 10° E daylight
26 Nov - 17:13:09 10° WNW 17:17:51 77° SSW 17:22:29 10° ESE visible
26 Nov - 18:55:01 10° W 18:59:01 28° SW 19:02:57 10° SSE visible
27 Nov - 12:25:44 10° SSW 12:29:48 30° SE 12:33:54 10° E daylight
27 Nov - 14:06:19 10° WSW 14:11:01 78° SSE 14:15:43 10° E daylight
27 Nov - 15:47:57 10° W 15:52:41 84° N 15:57:22 10° E daylight
27 Nov - 17:29:36 10° WNW 17:34:12 56° SSW 17:38:44 10° SE visible
27 Nov - 19:12:04 10° W 19:15:05 17° SW 19:18:06 10° S visible
28 Nov - 11:03:06 10° SSE 11:05:16 13° SE 11:07:25 10° ESE daylight
28 Nov - 12:41:33 10° SW 12:46:01 46° SSE 12:50:31 10° E daylight
28 Nov - 14:22:44 10° W 14:27:28 87° N 14:32:10 10° E daylight
28 Nov - 16:04:26 10° W 16:09:08 87° SSW 16:13:49 10° ESE daylight
28 Nov - 17:46:09 10° W 17:50:28 37° SSW 17:54:44 10° SE visible
29 Nov - 11:17:39 10° SSW 11:21:17 23° SE 11:24:56 10° E daylight
29 Nov - 12:57:41 10° WSW 13:02:20 67° SSE 13:07:00 10° ENE daylight
29 Nov - 14:39:13 10° W 14:43:57 82° N 14:48:39 10° E daylight
29 Nov - 16:20:52 10° WNW 16:25:33 68° SSW 16:30:11 10° ESE daylight
29 Nov - 18:02:54 10° W 18:06:37 23° SW 18:10:17 10° SSE visible
30 Nov - 11:33:09 10° SW 11:37:25 36° SSE 11:41:43 10° E daylight
30 Nov - 13:14:02 10° WSW 13:18:44 85° SSE 13:23:27 10° E daylight
30 Nov - 14:55:42 10° W 15:00:25 87° N 15:05:08 10° E daylight
30 Nov - 16:37:21 10° W 16:41:53 48° SSW 16:46:21 10° SE daylight
30 Nov - 18:20:19 10° WSW 18:22:39 14° SW 18:24:58 10° SSW visible
01 Dec - 10:09:53 10° S 10:12:48 17° SE 10:15:45 10° E daylight
01 Dec - 11:49:08 10° SW 11:53:41 54° SSE 11:58:16 10° E daylight
01 Dec - 13:30:29 10° W 13:35:12 84° N 13:39:55 10° E daylight
01 Dec - 15:12:09 10° W 15:16:52 80° SSW 15:21:33 10° ESE daylight
01 Dec - 16:53:58 10° W 16:58:06 31° SW 17:02:11 10° SSE visible
02 Dec - 10:24:57 10° SSW 10:28:52 27° SE 10:32:51 10° E daylight
02 Dec - 12:05:22 10° WSW 12:10:02 75° SSE 12:14:44 10° ENE daylight
02 Dec - 13:46:58 10° W 13:51:41 83° N 13:56:24 10° E daylight
02 Dec - 15:28:37 10° WNW 15:33:15 60° SSW 15:37:50 10° ESE daylight
02 Dec - 17:10:54 10° W 17:14:12 19° SW 17:17:29 10° S visible
03 Dec - 09:02:47 10° SSE 09:04:22 12° SE 09:05:58 10° ESE daylight
03 Dec - 10:40:40 10° SW 10:45:04 43° SSE 10:49:30 10° E daylight
03 Dec - 12:21:46 10° W 12:26:28 89° NNW 12:31:11 10° E daylight
03 Dec - 14:03:26 10° W 14:08:10 89° S 14:12:52 10° ESE daylight
03 Dec - 15:45:08 10° W 15:49:31 40° SSW 15:53:54 10° SE daylight
03 Dec - 17:29:12 10° WSW 17:30:10 11° SW 17:31:08 10° SW visible
04 Dec - 09:16:57 10° S 09:20:22 21° SE 09:23:49 10° E daylight
04 Dec - 10:56:45 10° WSW 11:01:22 63° SSE 11:06:01 10° ENE daylight
04 Dec - 12:38:14 10° W 12:42:56 83° N 12:47:39 10° E daylight
04 Dec - 14:19:53 10° WNW 14:24:34 72° SSW 14:29:15 10° ESE daylight
04 Dec - 16:01:50 10° W 16:05:42 26° SW 16:09:33 10° SSE daylight
